Time,TemperatureF,DewpointF,PressureIn,WindDirection,WindDirectionDegrees,WindSpeedMPH,WindSpeedGustMPH,Humidity,HourlyPrecipIn,Conditions,Clouds,dailyrainin,SoftwareType,DateUTC
2013-04-11 00:00:00,74.9,71.4,29.78,SSE,155,0.0,-999.0,89,0.00,,,0.00,WeatherSnoop3.0,2013-04-11 05:00:00,
2013-04-11 00:05:00,74.8,71.7,29.78,SSE,159,0.0,-999.0,90,0.00,,,0.00,WeatherSnoop3.0,2013-04-11 05:05:00,
2013-04-11 00:10:00,74.8,71.7,29.78,SSE,155,0.0,-999.0,90,0.00,,,0.00,WeatherSnoop3.0,2013-04-11 05:10:00,
2013-04-11 00:15:00,74.7,71.6,29.78,SE,144,0.0,-999.0,90,0.00,,,0.00,WeatherSnoop3.0,2013-04-11 05:15:00,
2013-04-11 00:20:00,74.6,71.5,29.78,SE,146,0.0,-999.0,90,0.00,,,0.00,WeatherSnoop3.0,2013-04-11 05:20:00,
2013-04-11 00:25:00,74.6,71.5,29.77,SE,128,0.0,-999.0,90,0.00,,,0.00,WeatherSnoop3.0,2013-04-11 05:25:00,
2013-04-11 00:30:00,74.5,71.4,29.77,SSE,150,0.0,-999.0,90,0.00,,,0.00,WeatherSnoop3.0,2013-04-11 05:30:00,
2013-04-11 00:35:00,74.4,71.3,29.77,SSE,153,0.0,-999.0,90,0.00,,,0.00,WeatherSnoop3.0,2013-04-11 05:35:00,
2013-04-11 00:40:00,74.4,71.3,29.77,SSE,162,0.0,-999.0,90,0.00,,,0.00,WeatherSnoop3.0,2013-04-11 05:40:00,
2013-04-11 00:45:00,74.4,71.3,29.77,SSE,148,0.0,-999.0,90,0.00,,,0.00,WeatherSnoop3.0,2013-04-11 05:45:00,
2013-04-11 00:50:00,74.4,71.3,29.77,SSE,157,0.0,-999.0,90,0.00,,,0.00,WeatherSnoop3.0,2013-04-11 05:50:00,
2013-04-11 00:55:00,74.4,71.3,29.77,SSE,162,0.0,-999.0,90,0.00,,,0.00,WeatherSnoop3.0,2013-04-11 05:55:00,
2013-04-11 01:00:00,74.5,71.4,29.77,SE,143,0.0,-999.0,90,0.00,,,0.00,WeatherSnoop3.0,2013-04-11 06:00:00,
2013-04-11 01:05:00,74.5,71.4,29.76,South,182,0.0,-999.0,90,0.00,,,0.00,WeatherSnoop3.0,2013-04-11 06:05:00,
2013-04-11 01:10:00,74.5,71.4,29.77,SSE,147,0.0,-999.0,90,0.00,,,0.00,WeatherSnoop3.0,2013-04-11 06:10:00,
2013-04-11 01:15:00,74.4,71.3,29.77,SSE,167,0.0,-999.0,90,0.00,,,0.00,WeatherSnoop3.0,2013-04-11 06:15:00,
2013-04-11 01:20:00,74.3,71.2,29.76,SE,144,0.0,-999.0,90,0.00,,,0.00,WeatherSnoop3.0,2013-04-11 06:20:00,
2013-04-11 01:25:00,74.2,71.4,29.76,SSW,192,0.0,-999.0,91,0.00,,,0.00,WeatherSnoop3.0,2013-04-11 06:25:00,
2013-04-11 01:30:00,74.2,71.4,29.76,South,173,0.0,-999.0,91,0.00,,,0.00,WeatherSnoop3.0,2013-04-11 06:30:00,
2013-04-11 01:35:00,74.1,71.3,29.76,South,184,0.0,-999.0,91,0.00,,,0.00,WeatherSnoop3.0,2013-04-11 06:35:00,
2013-04-11 01:40:00,73.9,71.1,29.76,SSE,167,0.0,-999.0,91,0.00,,,0.00,WeatherSnoop3.0,2013-04-11 06:40:00,
2013-04-11 01:45:00,73.7,71.2,29.76,South,177,0.0,-999.0,92,0.00,,,0.00,WeatherSnoop3.0,2013-04-11 06:45:00,
2013-04-11 01:50:00,73.6,71.1,29.75,South,178,0.0,-999.0,92,0.00,,,0.00,WeatherSnoop3.0,2013-04-11 06:50:00,
2013-04-11 01:55:00,73.5,71.3,29.75,South,179,0.0,-999.0,93,0.00,,,0.00,WeatherSnoop3.0,2013-04-11 06:55:00,
2013-04-11 02:00:00,73.3,71.1,29.75,South,176,0.0,-999.0,93,0.00,,,0.00,WeatherSnoop3.0,2013-04-11 07:00:00,
2013-04-11 02:05:00,73.2,71.0,29.75,SSE,154,0.0,-999.0,93,0.00,,,0.00,WeatherSnoop3.0,2013-04-11 07:05:00,
2013-04-11 02:10:00,73.2,71.0,29.75,SSE,148,0.0,-999.0,93,0.00,,,0.00,WeatherSnoop3.0,2013-04-11 07:10:00,
2013-04-11 02:15:00,73.1,71.3,29.75,SSE,153,0.0,-999.0,94,0.00,,,0.00,WeatherSnoop3.0,2013-04-11 07:15:00,
2013-04-11 02:20:00,73.1,71.3,29.75,SE,133,0.0,-999.0,94,0.00,,,0.00,WeatherSnoop3.0,2013-04-11 07:20:00,
2013-04-11 02:25:00,73.0,71.2,29.74,SSE,166,0.0,-999.0,94,0.00,,,0.00,WeatherSnoop3.0,2013-04-11 07:25:00,
2013-04-11 02:30:00,72.9,71.1,29.74,SSE,158,0.0,-999.0,94,0.00,,,0.00,WeatherSnoop3.0,2013-04-11 07:30:00,
2013-04-11 02:35:00,72.9,71.1,29.74,South,169,0.0,-999.0,94,0.00,,,0.00,WeatherSnoop3.0,2013-04-11 07:35:00,
2013-04-11 02:40:00,72.8,71.3,29.74,South,186,0.0,-999.0,95,0.00,,,0.00,WeatherSnoop3.0,2013-04-11 07:40:00,
2013-04-11 02:45:00,72.8,71.0,29.73,South,169,0.0,-999.0,94,0.00,,,0.00,WeatherSnoop3.0,2013-04-11 07:45:00,
2013-04-11 02:50:00,72.7,71.2,29.73,SE,136,0.0,-999.0,95,0.00,,,0.00,WeatherSnoop3.0,2013-04-11 07:50:00,
2013-04-11 02:55:00,72.6,71.1,29.73,SSE,163,0.0,-999.0,95,0.00,,,0.00,WeatherSnoop3.0,2013-04-11 07:55:00,
2013-04-11 03:00:00,72.6,71.1,29.74,SSE,155,0.0,-999.0,95,0.00,,,0.00,WeatherSnoop3.0,2013-04-11 08:00:00,
2013-04-11 03:05:00,72.6,71.1,29.74,SE,140,0.0,-999.0,95,0.00,,,0.00,WeatherSnoop3.0,2013-04-11 08:05:00,
2013-04-11 03:10:00,72.5,71.0,29.73,SSE,157,0.0,-999.0,95,0.00,,,0.00,WeatherSnoop3.0,2013-04-11 08:10:00,
2013-04-11 03:15:00,72.5,71.0,29.73,SSE,157,0.0,-999.0,95,0.00,,,0.00,WeatherSnoop3.0,2013-04-11 08:15:00,
2013-04-11 03:20:00,72.5,71.0,29.73,South,187,0.0,-999.0,95,0.00,,,0.00,WeatherSnoop3.0,2013-04-11 08:20:00,
2013-04-11 03:25:00,72.4,70.9,29.72,South,170,0.0,-999.0,95,0.00,,,0.00,WeatherSnoop3.0,2013-04-11 08:25:00,
2013-04-11 03:30:00,72.4,71.2,29.72,SE,134,0.0,-999.0,96,0.00,,,0.00,WeatherSnoop3.0,2013-04-11 08:30:00,
2013-04-11 03:35:00,72.3,71.1,29.71,SE,136,0.0,-999.0,96,0.00,,,0.00,WeatherSnoop3.0,2013-04-11 08:35:00,
2013-04-11 03:40:00,72.3,71.1,29.71,South,176,0.0,-999.0,96,0.00,,,0.00,WeatherSnoop3.0,2013-04-11 08:40:00,
2013-04-11 03:45:00,72.2,71.0,29.71,SE,138,0.0,-999.0,96,0.00,,,0.00,WeatherSnoop3.0,2013-04-11 08:45:00,
2013-04-11 03:50:00,72.2,71.0,29.70,SSE,162,0.0,-999.0,96,0.00,,,0.00,WeatherSnoop3.0,2013-04-11 08:50:00,
2013-04-11 03:55:00,72.2,71.0,29.71,SSW,194,0.0,-999.0,96,0.00,,,0.00,WeatherSnoop3.0,2013-04-11 08:55:00,
2013-04-11 04:00:00,72.2,71.0,29.70,South,170,0.0,-999.0,96,0.00,,,0.00,WeatherSnoop3.0,2013-04-11 09:00:00,
2013-04-11 04:05:00,70.2,68.7,29.70,NW,315,0.0,-999.0,95,0.00,,,0.00,WeatherSnoop3.0,2013-04-11 09:05:00,
2013-04-11 04:10:00,66.6,64.2,29.71,North,350,0.0,-999.0,92,0.00,,,0.00,WeatherSnoop3.0,2013-04-11 09:10:00,
2013-04-11 04:15:00,65.0,62.6,29.71,North,360,0.0,-999.0,92,0.00,,,0.00,WeatherSnoop3.0,2013-04-11 09:15:00,
2013-04-11 04:20:00,63.7,61.6,29.72,North,360,0.0,-999.0,93,0.00,,,0.00,WeatherSnoop3.0,2013-04-11 09:20:00,
2013-04-11 04:25:00,62.6,60.5,29.72,NW,316,0.0,-999.0,93,0.00,,,0.00,WeatherSnoop3.0,2013-04-11 09:25:00,
2013-04-11 04:30:00,61.8,59.8,29.72,NW,317,0.0,-999.0,93,0.00,,,0.00,WeatherSnoop3.0,2013-04-11 09:30:00,
2013-04-11 04:35:00,60.9,58.9,29.72,NW,317,0.0,-999.0,93,0.00,,,0.00,WeatherSnoop3.0,2013-04-11 09:35:00,
2013-04-11 04:40:00,60.3,58.3,29.72,WNW,290,0.0,-999.0,93,0.00,,,0.00,WeatherSnoop3.0,2013-04-11 09:40:00,
2013-04-11 04:45:00,59.9,58.2,29.72,NW,305,0.0,-999.0,94,0.00,,,0.00,WeatherSnoop3.0,2013-04-11 09:45:00,
2013-04-11 04:50:00,59.5,57.8,29.72,NNW,327,0.0,-999.0,94,0.00,,,0.00,WeatherSnoop3.0,2013-04-11 09:50:00,
2013-04-11 04:55:00,59.0,57.3,29.72,NW,312,0.0,-999.0,94,0.00,,,0.00,WeatherSnoop3.0,2013-04-11 09:55:00,
2013-04-11 05:00:00,58.7,57.0,29.71,NW,323,0.0,-999.0,94,0.00,,,0.00,WeatherSnoop3.0,2013-04-11 10:00:00,
2013-04-11 05:05:00,58.2,56.8,29.72,NW,315,0.0,-999.0,95,0.00,,,0.00,WeatherSnoop3.0,2013-04-11 10:05:00,
2013-04-11 05:10:00,57.9,56.5,29.71,NW,324,0.0,-999.0,95,0.00,,,0.00,WeatherSnoop3.0,2013-04-11 10:10:00,
2013-04-11 05:15:00,57.3,55.9,29.71,NW,317,0.0,-999.0,95,0.00,,,0.00,WeatherSnoop3.0,2013-04-11 10:15:00,
2013-04-11 05:20:00,56.8,55.4,29.72,NNW,331,0.0,-999.0,95,0.00,,,0.00,WeatherSnoop3.0,2013-04-11 10:20:00,
2013-04-11 05:25:00,56.6,55.2,29.72,NW,323,0.0,-999.0,95,0.00,,,0.00,WeatherSnoop3.0,2013-04-11 10:25:00,
2013-04-11 05:30:00,56.2,54.8,29.73,NW,312,0.0,-999.0,95,0.00,,,0.00,WeatherSnoop3.0,2013-04-11 10:30:00,
2013-04-11 05:35:00,56.0,54.6,29.73,WNW,289,0.0,-999.0,95,0.00,,,0.00,WeatherSnoop3.0,2013-04-11 10:35:00,
2013-04-11 05:40:00,55.7,54.3,29.72,NW,322,0.0,-999.0,95,0.00,,,0.00,WeatherSnoop3.0,2013-04-11 10:40:00,
2013-04-11 05:45:00,55.5,54.1,29.73,NW,323,0.0,-999.0,95,0.00,,,0.00,WeatherSnoop3.0,2013-04-11 10:45:00,
2013-04-11 05:50:00,55.5,54.4,29.74,NW,315,0.0,-999.0,96,0.00,,,0.00,WeatherSnoop3.0,2013-04-11 10:50:00,
2013-04-11 05:55:00,55.0,53.6,29.72,NNW,342,0.0,-999.0,95,0.00,,,0.00,WeatherSnoop3.0,2013-04-11 10:55:00,
2013-04-11 06:00:00,54.9,53.8,29.73,NNW,338,0.0,-999.0,96,0.00,,,0.00,WeatherSnoop3.0,2013-04-11 11:00:00,
2013-04-11 06:05:00,54.4,53.0,29.73,NW,319,0.0,-999.0,95,0.00,,,0.00,WeatherSnoop3.0,2013-04-11 11:05:00,
2013-04-11 06:10:00,53.9,52.5,29.73,North,360,0.0,-999.0,95,0.00,,,0.00,WeatherSnoop3.0,2013-04-11 11:10:00,
2013-04-11 06:15:00,53.4,52.3,29.73,North,360,0.0,-999.0,96,0.00,,,0.00,WeatherSnoop3.0,2013-04-11 11:15:00,
2013-04-11 06:20:00,53.2,52.1,29.73,North,360,0.0,-999.0,96,0.00,,,0.00,WeatherSnoop3.0,2013-04-11 11:20:00,
2013-04-11 06:25:00,53.3,52.2,29.72,NNW,339,0.0,-999.0,96,0.00,,,0.00,WeatherSnoop3.0,2013-04-11 11:25:00,
2013-04-11 06:30:00,53.2,52.1,29.73,North,360,0.0,-999.0,96,0.00,,,0.00,WeatherSnoop3.0,2013-04-11 11:30:00,
2013-04-11 06:35:00,53.2,52.1,29.72,NNW,327,0.0,-999.0,96,0.00,,,0.00,WeatherSnoop3.0,2013-04-11 11:35:00,
2013-04-11 06:40:00,53.2,52.1,29.73,NW,314,0.0,-999.0,96,0.00,,,0.00,WeatherSnoop3.0,2013-04-11 11:40:00,
2013-04-11 06:45:00,53.0,51.9,29.73,NW,318,0.0,-999.0,96,0.00,,,0.00,WeatherSnoop3.0,2013-04-11 11:45:00,
2013-04-11 06:50:00,52.9,51.8,29.74,NNW,333,0.0,-999.0,96,0.00,,,0.00,WeatherSnoop3.0,2013-04-11 11:50:00,
2013-04-11 06:55:00,52.9,51.8,29.73,NNW,328,0.0,-999.0,96,0.00,,,0.00,WeatherSnoop3.0,2013-04-11 11:55:00,
2013-04-11 07:00:00,52.8,51.7,29.72,NW,321,0.0,-999.0,96,0.00,,,0.00,WeatherSnoop3.0,2013-04-11 12:00:00,
2013-04-11 07:05:00,52.6,51.5,29.74,NW,322,0.0,-999.0,96,0.00,,,0.00,WeatherSnoop3.0,2013-04-11 12:05:00,
2013-04-11 07:10:00,52.6,51.5,29.74,NW,317,0.0,-999.0,96,0.00,,,0.00,WeatherSnoop3.0,2013-04-11 12:10:00,
2013-04-11 07:15:00,52.5,51.4,29.74,NNW,336,0.0,-999.0,96,0.00,,,0.00,WeatherSnoop3.0,2013-04-11 12:15:00,
2013-04-11 07:20:00,52.5,51.4,29.75,NNW,335,0.0,-999.0,96,0.00,,,0.00,WeatherSnoop3.0,2013-04-11 12:20:00,
2013-04-11 07:25:00,52.5,51.4,29.75,NW,321,0.0,-999.0,96,0.00,,,0.00,WeatherSnoop3.0,2013-04-11 12:25:00,
2013-04-11 07:30:00,52.4,51.3,29.75,NW,312,0.0,-999.0,96,0.00,,,0.00,WeatherSnoop3.0,2013-04-11 12:30:00,
2013-04-11 07:35:00,52.4,51.3,29.74,North,360,0.0,-999.0,96,0.00,,,0.00,WeatherSnoop3.0,2013-04-11 12:35:00,
2013-04-11 07:40:00,52.3,51.2,29.73,NW,323,0.0,-999.0,96,0.00,,,0.00,WeatherSnoop3.0,2013-04-11 12:40:00,
2013-04-11 07:45:00,52.2,51.1,29.74,North,355,0.0,-999.0,96,0.00,,,0.00,WeatherSnoop3.0,2013-04-11 12:45:00,
2013-04-11 07:50:00,52.2,51.1,29.75,NW,317,0.0,-999.0,96,0.00,,,0.00,WeatherSnoop3.0,2013-04-11 12:50:00,
2013-04-11 07:55:00,51.9,50.8,29.77,NW,313,0.0,-999.0,96,0.00,,,0.00,WeatherSnoop3.0,2013-04-11 12:55:00,
2013-04-11 08:00:00,51.8,50.7,29.79,North,360,0.0,-999.0,96,0.00,,,0.00,WeatherSnoop3.0,2013-04-11 13:00:00,
2013-04-11 08:05:00,51.9,50.8,29.81,WNW,295,0.0,-999.0,96,0.00,,,0.00,WeatherSnoop3.0,2013-04-11 13:05:00,
2013-04-11 08:10:00,51.5,50.4,29.79,WNW,292,0.0,-999.0,96,0.00,,,0.00,WeatherSnoop3.0,2013-04-11 13:10:00,
2013-04-11 08:15:00,51.2,50.1,29.78,NW,319,0.0,-999.0,96,0.00,,,0.00,WeatherSnoop3.0,2013-04-11 13:15:00,
2013-04-11 08:20:00,50.6,49.5,29.76,North,360,0.0,-999.0,96,0.00,,,0.00,WeatherSnoop3.0,2013-04-11 13:20:00,
2013-04-11 08:25:00,50.3,49.2,29.77,NW,316,0.0,-999.0,96,0.00,,,0.00,WeatherSnoop3.0,2013-04-11 13:25:00,
2013-04-11 08:30:00,50.3,49.2,29.78,North,360,0.0,-999.0,96,0.00,,,0.00,WeatherSnoop3.0,2013-04-11 13:30:00,
2013-04-11 08:35:00,50.0,48.9,29.76,NNW,347,0.0,-999.0,96,0.00,,,0.00,WeatherSnoop3.0,2013-04-11 13:35:00,
2013-04-11 08:40:00,50.0,48.9,29.79,NNE,19,0.0,-999.0,96,0.00,,,0.00,WeatherSnoop3.0,2013-04-11 13:40:00,
2013-04-11 08:45:00,50.2,49.1,29.76,North,5,0.0,-999.0,96,0.00,,,0.00,WeatherSnoop3.0,2013-04-11 13:45:00,
2013-04-11 08:50:00,50.3,49.2,29.73,North,9,0.0,-999.0,96,0.00,,,0.00,WeatherSnoop3.0,2013-04-11 13:50:00,
2013-04-11 08:55:00,50.7,49.6,29.79,NW,319,0.0,-999.0,96,0.00,,,0.00,WeatherSnoop3.0,2013-04-11 13:55:00,
2013-04-11 09:00:00,51.1,50.0,29.80,NW,312,0.0,-999.0,96,0.00,,,0.00,WeatherSnoop3.0,2013-04-11 14:00:00,
2013-04-11 09:05:00,50.9,49.8,29.78,NNW,340,0.0,-999.0,96,0.00,,,0.00,WeatherSnoop3.0,2013-04-11 14:05:00,
2013-04-11 09:10:00,50.9,49.8,29.78,NW,319,0.0,-999.0,96,0.00,,,0.00,WeatherSnoop3.0,2013-04-11 14:10:00,
2013-04-11 09:15:00,50.9,49.8,29.81,West,265,0.0,-999.0,96,0.00,,,0.00,WeatherSnoop3.0,2013-04-11 14:15:00,
2013-04-11 09:20:00,51.0,50.2,29.80,North,360,0.0,-999.0,97,0.00,,,0.00,WeatherSnoop3.0,2013-04-11 14:20:00,
2013-04-11 09:25:00,50.9,50.1,29.83,WNW,282,0.0,-999.0,97,0.00,,,0.00,WeatherSnoop3.0,2013-04-11 14:25:00,
2013-04-11 09:30:00,50.6,49.8,29.80,North,360,0.0,-999.0,97,0.00,,,0.00,WeatherSnoop3.0,2013-04-11 14:30:00,
2013-04-11 09:35:00,50.5,49.7,29.81,WNW,302,0.0,-999.0,97,0.00,,,0.00,WeatherSnoop3.0,2013-04-11 14:35:00,
2013-04-11 09:40:00,50.5,49.7,29.83,NW,321,0.0,-999.0,97,0.00,,,0.00,WeatherSnoop3.0,2013-04-11 14:40:00,
2013-04-11 09:45:00,50.5,49.7,29.83,WNW,296,0.0,-999.0,97,0.00,,,0.00,WeatherSnoop3.0,2013-04-11 14:45:00,
2013-04-11 09:50:00,50.5,49.7,29.82,NW,305,0.0,-999.0,97,0.00,,,0.00,WeatherSnoop3.0,2013-04-11 14:50:00,
2013-04-11 09:55:00,50.5,49.7,29.83,NW,313,0.0,-999.0,97,0.00,,,0.00,WeatherSnoop3.0,2013-04-11 14:55:00,
2013-04-11 10:00:00,50.5,49.7,29.83,NNW,328,0.0,-999.0,97,0.00,,,0.00,WeatherSnoop3.0,2013-04-11 15:00:00,
2013-04-11 10:05:00,50.5,49.7,29.84,NW,311,0.0,-999.0,97,0.00,,,0.00,WeatherSnoop3.0,2013-04-11 15:05:00,
2013-04-11 10:10:00,50.5,49.7,29.83,NNW,331,0.0,-999.0,97,0.00,,,0.00,WeatherSnoop3.0,2013-04-11 15:10:00,
2013-04-11 10:15:00,50.7,49.9,29.82,North,360,0.0,-999.0,97,0.00,,,0.00,WeatherSnoop3.0,2013-04-11 15:15:00,
2013-04-11 10:20:00,50.6,49.8,29.84,NW,317,0.0,-999.0,97,0.00,,,0.00,WeatherSnoop3.0,2013-04-11 15:20:00,
2013-04-11 10:25:00,50.7,49.9,29.84,NNW,331,0.0,-999.0,97,0.00,,,0.00,WeatherSnoop3.0,2013-04-11 15:25:00,
2013-04-11 10:30:00,50.5,49.7,29.84,NW,321,0.0,-999.0,97,0.00,,,0.00,WeatherSnoop3.0,2013-04-11 15:30:00,
2013-04-11 10:35:00,50.5,49.7,29.86,WNW,302,0.0,-999.0,97,0.00,,,0.00,WeatherSnoop3.0,2013-04-11 15:35:00,
2013-04-11 10:40:00,50.7,49.9,29.83,NNW,327,0.0,-999.0,97,0.00,,,0.00,WeatherSnoop3.0,2013-04-11 15:40:00,
2013-04-11 10:45:00,51.0,50.2,29.84,North,360,0.0,-999.0,97,0.00,,,0.00,WeatherSnoop3.0,2013-04-11 15:45:00,
2013-04-11 10:50:00,51.3,50.5,29.85,NW,317,0.0,-999.0,97,0.00,,,0.00,WeatherSnoop3.0,2013-04-11 15:50:00,
2013-04-11 10:55:00,51.4,50.6,29.85,NW,315,0.0,-999.0,97,0.00,,,0.00,WeatherSnoop3.0,2013-04-11 15:55:00,
2013-04-11 11:00:00,51.2,50.4,29.85,NW,309,0.0,-999.0,97,0.00,,,0.00,WeatherSnoop3.0,2013-04-11 16:00:00,
2013-04-11 11:05:00,51.5,50.4,29.85,NW,323,0.0,-999.0,96,0.00,,,0.00,WeatherSnoop3.0,2013-04-11 16:05:00,
2013-04-11 11:10:00,52.4,51.3,29.85,NW,311,0.0,-999.0,96,0.00,,,0.00,WeatherSnoop3.0,2013-04-11 16:10:00,
2013-04-11 11:15:00,52.6,51.5,29.85,North,360,0.0,-999.0,96,0.00,,,0.00,WeatherSnoop3.0,2013-04-11 16:15:00,
2013-04-11 11:20:00,52.1,50.7,29.85,NW,308,0.0,-999.0,95,0.00,,,0.00,WeatherSnoop3.0,2013-04-11 16:20:00,
2013-04-11 11:25:00,52.1,50.7,29.85,NW,314,0.0,-999.0,95,0.00,,,0.00,WeatherSnoop3.0,2013-04-11 16:25:00,
2013-04-11 11:30:00,52.3,50.9,29.83,NW,323,0.0,-999.0,95,0.00,,,0.00,WeatherSnoop3.0,2013-04-11 16:30:00,
2013-04-11 11:35:00,52.6,51.2,29.83,NNW,333,0.0,-999.0,95,0.00,,,0.00,WeatherSnoop3.0,2013-04-11 16:35:00,
2013-04-11 11:40:00,52.8,51.4,29.83,NNW,336,0.0,-999.0,95,0.00,,,0.00,WeatherSnoop3.0,2013-04-11 16:40:00,
2013-04-11 11:45:00,53.0,51.6,29.84,NNW,327,0.0,-999.0,95,0.00,,,0.00,WeatherSnoop3.0,2013-04-11 16:45:00,
2013-04-11 11:50:00,53.6,52.2,29.85,NW,315,0.0,-999.0,95,0.00,,,0.00,WeatherSnoop3.0,2013-04-11 16:50:00,
2013-04-11 11:55:00,53.3,51.6,29.83,NNW,348,0.0,-999.0,94,0.00,,,0.00,WeatherSnoop3.0,2013-04-11 16:55:00,
2013-04-11 12:00:00,53.5,51.8,29.82,NW,317,0.0,-999.0,94,0.00,,,0.00,WeatherSnoop3.0,2013-04-11 17:00:00,
2013-04-11 12:05:00,54.2,52.8,29.83,NW,316,0.0,-999.0,95,0.00,,,0.00,WeatherSnoop3.0,2013-04-11 17:05:00,
2013-04-11 12:10:00,54.1,52.4,29.82,NW,304,0.0,-999.0,94,0.00,,,0.00,WeatherSnoop3.0,2013-04-11 17:10:00,
2013-04-11 12:15:00,53.6,51.6,29.82,NW,320,0.0,-999.0,93,0.00,,,0.00,WeatherSnoop3.0,2013-04-11 17:15:00,
2013-04-11 12:20:00,53.0,51.0,29.82,NW,312,0.0,-999.0,93,0.00,,,0.00,WeatherSnoop3.0,2013-04-11 17:20:00,
2013-04-11 12:25:00,53.1,51.1,29.81,NNW,330,0.0,-999.0,93,0.00,,,0.00,WeatherSnoop3.0,2013-04-11 17:25:00,
2013-04-11 12:30:00,52.9,50.9,29.80,NW,321,0.0,-999.0,93,0.00,,,0.00,WeatherSnoop3.0,2013-04-11 17:30:00,
2013-04-11 12:35:00,52.7,50.7,29.80,NNW,340,0.0,-999.0,93,0.00,,,0.00,WeatherSnoop3.0,2013-04-11 17:35:00,
2013-04-11 12:40:00,52.9,50.9,29.78,NNW,340,0.0,-999.0,93,0.00,,,0.00,WeatherSnoop3.0,2013-04-11 17:40:00,
2013-04-11 12:45:00,53.2,51.2,29.78,NE,56,0.0,-999.0,93,0.00,,,0.00,WeatherSnoop3.0,2013-04-11 17:45:00,
2013-04-11 12:50:00,53.9,51.9,29.76,NNE,17,0.0,-999.0,93,0.00,,,0.00,WeatherSnoop3.0,2013-04-11 17:50:00,
2013-04-11 12:55:00,55.1,53.1,29.75,North,360,0.0,-999.0,93,0.00,,,0.00,WeatherSnoop3.0,2013-04-11 17:55:00,
2013-04-11 13:00:00,55.2,52.6,29.76,North,360,0.0,-999.0,91,0.00,,,0.00,WeatherSnoop3.0,2013-04-11 18:00:00,
2013-04-11 13:05:00,56.6,54.6,29.75,NE,35,0.0,-999.0,93,0.00,,,0.00,WeatherSnoop3.0,2013-04-11 18:05:00,
2013-04-11 13:10:00,56.9,54.3,29.74,NNE,20,0.0,-999.0,91,0.00,,,0.00,WeatherSnoop3.0,2013-04-11 18:10:00,
2013-04-11 13:15:00,57.3,54.7,29.75,North,5,0.0,-999.0,91,0.00,,,0.00,WeatherSnoop3.0,2013-04-11 18:15:00,
2013-04-11 13:20:00,56.9,54.0,29.75,NNE,13,0.0,-999.0,90,0.00,,,0.00,WeatherSnoop3.0,2013-04-11 18:20:00,
2013-04-11 13:25:00,56.9,54.0,29.76,NW,319,0.0,-999.0,90,0.00,,,0.00,WeatherSnoop3.0,2013-04-11 18:25:00,
2013-04-11 13:30:00,56.4,53.5,29.77,NW,325,0.0,-999.0,90,0.00,,,0.00,WeatherSnoop3.0,2013-04-11 18:30:00,
2013-04-11 13:35:00,56.4,53.5,29.78,West,277,0.0,-999.0,90,0.00,,,0.00,WeatherSnoop3.0,2013-04-11 18:35:00,
2013-04-11 13:40:00,56.9,54.3,29.78,NW,315,0.0,-999.0,91,0.00,,,0.00,WeatherSnoop3.0,2013-04-11 18:40:00,
2013-04-11 13:45:00,56.9,54.0,29.78,WNW,300,0.0,-999.0,90,0.00,,,0.00,WeatherSnoop3.0,2013-04-11 18:45:00,
2013-04-11 13:50:00,57.1,54.2,29.80,WNW,286,0.0,-999.0,90,0.00,,,0.00,WeatherSnoop3.0,2013-04-11 18:50:00,
2013-04-11 13:55:00,57.9,55.0,29.78,NW,311,0.0,-999.0,90,0.00,,,0.00,WeatherSnoop3.0,2013-04-11 18:55:00,
2013-04-11 14:00:00,58.2,55.0,29.78,WNW,293,0.0,-999.0,89,0.00,,,0.00,WeatherSnoop3.0,2013-04-11 19:00:00,
2013-04-11 14:05:00,58.0,54.2,29.79,West,281,0.0,-999.0,87,0.00,,,0.00,WeatherSnoop3.0,2013-04-11 19:05:00,
2013-04-11 14:10:00,58.2,54.7,29.78,WNW,285,0.0,-999.0,88,0.00,,,0.00,WeatherSnoop3.0,2013-04-11 19:10:00,
2013-04-11 14:15:00,58.5,55.0,29.78,West,271,0.0,-999.0,88,0.00,,,0.00,WeatherSnoop3.0,2013-04-11 19:15:00,
2013-04-11 14:20:00,58.3,54.4,29.78,West,280,0.0,-999.0,87,0.00,,,0.00,WeatherSnoop3.0,2013-04-11 19:20:00,
2013-04-11 14:25:00,58.4,54.5,29.79,WNW,284,0.0,-999.0,87,0.00,,,0.00,WeatherSnoop3.0,2013-04-11 19:25:00,
2013-04-11 14:30:00,58.6,54.7,29.79,West,277,0.0,-999.0,87,0.00,,,0.00,WeatherSnoop3.0,2013-04-11 19:30:00,
2013-04-11 14:35:00,58.6,54.7,29.80,WNW,295,0.0,-999.0,87,0.00,,,0.00,WeatherSnoop3.0,2013-04-11 19:35:00,
2013-04-11 14:40:00,58.7,54.5,29.80,NW,308,0.0,-999.0,86,0.00,,,0.00,WeatherSnoop3.0,2013-04-11 19:40:00,
2013-04-11 14:45:00,58.6,54.7,29.79,WNW,282,0.0,-999.0,87,0.00,,,0.00,WeatherSnoop3.0,2013-04-11 19:45:00,
2013-04-11 14:50:00,58.9,55.0,29.79,WNW,287,0.0,-999.0,87,0.00,,,0.00,WeatherSnoop3.0,2013-04-11 19:50:00,
2013-04-11 14:55:00,58.7,54.5,29.80,WNW,288,0.0,-999.0,86,0.00,,,0.00,WeatherSnoop3.0,2013-04-11 19:55:00,
2013-04-11 15:00:00,60.1,56.2,29.79,WNW,286,0.0,-999.0,87,0.00,,,0.00,WeatherSnoop3.0,2013-04-11 20:00:00,
2013-04-11 15:05:00,60.1,55.6,29.79,NW,310,0.0,-999.0,85,0.00,,,0.00,WeatherSnoop3.0,2013-04-11 20:05:00,
2013-04-11 15:10:00,60.7,56.5,29.79,WNW,298,0.0,-999.0,86,0.00,,,0.00,WeatherSnoop3.0,2013-04-11 20:10:00,
2013-04-11 15:15:00,61.8,57.2,29.79,WNW,292,0.0,-999.0,85,0.00,,,0.00,WeatherSnoop3.0,2013-04-11 20:15:00,
2013-04-11 15:20:00,61.4,56.2,29.78,NW,313,0.0,-999.0,83,0.00,,,0.00,WeatherSnoop3.0,2013-04-11 20:20:00,
2013-04-11 15:25:00,61.3,56.4,29.78,NW,318,0.0,-999.0,84,0.00,,,0.00,WeatherSnoop3.0,2013-04-11 20:25:00,
2013-04-11 15:30:00,61.3,56.4,29.78,NW,311,0.0,-999.0,84,0.00,,,0.00,WeatherSnoop3.0,2013-04-11 20:30:00,
2013-04-11 15:35:00,61.2,55.7,29.78,NW,312,0.0,-999.0,82,0.00,,,0.00,WeatherSnoop3.0,2013-04-11 20:35:00,
2013-04-11 15:40:00,61.0,55.8,29.78,WSW,252,0.0,-999.0,83,0.00,,,0.00,WeatherSnoop3.0,2013-04-11 20:40:00,
2013-04-11 15:45:00,61.1,55.6,29.77,NW,313,0.0,-999.0,82,0.00,,,0.00,WeatherSnoop3.0,2013-04-11 20:45:00,
2013-04-11 15:50:00,61.2,56.0,29.77,NW,316,0.0,-999.0,83,0.00,,,0.00,WeatherSnoop3.0,2013-04-11 20:50:00,
2013-04-11 15:55:00,62.1,56.5,29.78,NW,304,0.0,-999.0,82,0.00,,,0.00,WeatherSnoop3.0,2013-04-11 20:55:00,
2013-04-11 16:00:00,61.8,55.9,29.77,NNW,327,0.0,-999.0,81,0.00,,,0.00,WeatherSnoop3.0,2013-04-11 21:00:00,
2013-04-11 16:05:00,61.7,56.1,29.77,WNW,288,0.0,-999.0,82,0.00,,,0.00,WeatherSnoop3.0,2013-04-11 21:05:00,
2013-04-11 16:10:00,62.2,56.3,29.77,NW,322,0.0,-999.0,81,0.00,,,0.00,WeatherSnoop3.0,2013-04-11 21:10:00,
2013-04-11 16:15:00,62.4,56.5,29.77,West,281,0.0,-999.0,81,0.00,,,0.00,WeatherSnoop3.0,2013-04-11 21:15:00,
2013-04-11 16:20:00,62.8,56.2,29.77,West,264,0.0,-999.0,79,0.00,,,0.00,WeatherSnoop3.0,2013-04-11 21:20:00,
2013-04-11 16:25:00,63.2,56.6,29.78,West,269,0.0,-999.0,79,0.00,,,0.00,WeatherSnoop3.0,2013-04-11 21:25:00,
2013-04-11 16:30:00,63.3,56.3,29.78,WNW,292,0.0,-999.0,78,0.00,,,0.00,WeatherSnoop3.0,2013-04-11 21:30:00,
2013-04-11 16:35:00,63.0,56.7,29.78,NW,305,0.0,-999.0,80,0.00,,,0.00,WeatherSnoop3.0,2013-04-11 21:35:00,
2013-04-11 16:40:00,63.3,57.0,29.78,WNW,283,0.0,-999.0,80,0.00,,,0.00,WeatherSnoop3.0,2013-04-11 21:40:00,
2013-04-11 16:45:00,63.7,56.3,29.78,NW,311,0.0,-999.0,77,0.00,,,0.00,WeatherSnoop3.0,2013-04-11 21:45:00,
2013-04-11 16:50:00,63.4,56.4,29.78,WNW,288,0.0,-999.0,78,0.00,,,0.00,WeatherSnoop3.0,2013-04-11 21:50:00,
2013-04-11 16:55:00,63.6,55.9,29.78,NNW,329,0.0,-999.0,76,0.00,,,0.00,WeatherSnoop3.0,2013-04-11 21:55:00,
2013-04-11 17:00:00,63.3,55.6,29.77,NW,315,0.0,-999.0,76,0.00,,,0.00,WeatherSnoop3.0,2013-04-11 22:00:00,
2013-04-11 17:05:00,63.3,56.0,29.78,NW,314,0.0,-999.0,77,0.00,,,0.00,WeatherSnoop3.0,2013-04-11 22:05:00,
2013-04-11 17:10:00,63.5,55.8,29.78,NW,326,0.0,-999.0,76,0.00,,,0.00,WeatherSnoop3.0,2013-04-11 22:10:00,
2013-04-11 17:15:00,63.5,55.4,29.78,WNW,289,0.0,-999.0,75,0.00,,,0.00,WeatherSnoop3.0,2013-04-11 22:15:00,
2013-04-11 17:20:00,63.7,55.6,29.78,NW,306,0.0,-999.0,75,0.00,,,0.00,WeatherSnoop3.0,2013-04-11 22:20:00,
2013-04-11 17:25:00,64.0,55.9,29.78,NW,313,0.0,-999.0,75,0.00,,,0.00,WeatherSnoop3.0,2013-04-11 22:25:00,
2013-04-11 17:30:00,63.7,55.6,29.78,NW,315,0.0,-999.0,75,0.00,,,0.00,WeatherSnoop3.0,2013-04-11 22:30:00,
2013-04-11 17:35:00,63.3,54.9,29.79,WNW,295,0.0,-999.0,74,0.00,,,0.00,WeatherSnoop3.0,2013-04-11 22:35:00,
2013-04-11 17:40:00,63.4,55.3,29.79,NW,315,0.0,-999.0,75,0.00,,,0.00,WeatherSnoop3.0,2013-04-11 22:40:00,
2013-04-11 17:45:00,63.5,55.1,29.79,NNW,331,0.0,-999.0,74,0.00,,,0.00,WeatherSnoop3.0,2013-04-11 22:45:00,
2013-04-11 17:50:00,63.1,54.7,29.79,NW,307,0.0,-999.0,74,0.00,,,0.00,WeatherSnoop3.0,2013-04-11 22:50:00,
2013-04-11 17:55:00,63.1,54.3,29.80,WNW,291,0.0,-999.0,73,0.00,,,0.00,WeatherSnoop3.0,2013-04-11 22:55:00,
2013-04-11 18:00:00,62.9,54.5,29.80,North,360,0.0,-999.0,74,0.00,,,0.00,WeatherSnoop3.0,2013-04-11 23:00:00,
2013-04-11 18:05:00,63.0,54.6,29.80,NW,312,0.0,-999.0,74,0.00,,,0.00,WeatherSnoop3.0,2013-04-11 23:05:00,
2013-04-11 18:10:00,62.9,54.5,29.80,NNW,334,0.0,-999.0,74,0.00,,,0.00,WeatherSnoop3.0,2013-04-11 23:10:00,
2013-04-11 18:15:00,62.7,54.3,29.80,NW,320,0.0,-999.0,74,0.00,,,0.00,WeatherSnoop3.0,2013-04-11 23:15:00,
2013-04-11 18:20:00,62.7,53.9,29.80,NW,311,0.0,-999.0,73,0.00,,,0.00,WeatherSnoop3.0,2013-04-11 23:20:00,
2013-04-11 18:25:00,62.4,54.0,29.80,NW,304,0.0,-999.0,74,0.00,,,0.00,WeatherSnoop3.0,2013-04-11 23:25:00,
2013-04-11 18:30:00,62.2,53.4,29.80,NW,315,0.0,-999.0,73,0.00,,,0.00,WeatherSnoop3.0,2013-04-11 23:30:00,
2013-04-11 18:35:00,62.0,53.2,29.80,NW,315,0.0,-999.0,73,0.00,,,0.00,WeatherSnoop3.0,2013-04-11 23:35:00,
2013-04-11 18:40:00,61.9,53.1,29.79,NW,312,0.0,-999.0,73,0.00,,,0.00,WeatherSnoop3.0,2013-04-11 23:40:00,
2013-04-11 18:45:00,61.7,53.0,29.79,NW,315,0.0,-999.0,73,0.00,,,0.00,WeatherSnoop3.0,2013-04-11 23:45:00,
2013-04-11 18:50:00,61.6,54.3,29.78,NW,317,0.0,-999.0,77,0.00,,,0.00,WeatherSnoop3.0,2013-04-11 23:50:00,
2013-04-11 18:55:00,61.3,53.7,29.77,NW,319,0.0,-999.0,76,0.00,,,0.00,WeatherSnoop3.0,2013-04-11 23:55:00,
2013-04-11 19:00:00,60.8,53.9,29.78,NNW,328,0.0,-999.0,78,0.00,,,0.00,WeatherSnoop3.0,2013-04-12 00:00:00,
2013-04-11 19:05:00,60.3,53.4,29.78,NW,317,0.0,-999.0,78,0.00,,,0.00,WeatherSnoop3.0,2013-04-12 00:05:00,
2013-04-11 19:10:00,60.0,52.8,29.79,NW,326,0.0,-999.0,77,0.00,,,0.00,WeatherSnoop3.0,2013-04-12 00:10:00,
2013-04-11 19:15:00,59.7,52.8,29.80,NW,313,0.0,-999.0,78,0.00,,,0.00,WeatherSnoop3.0,2013-04-12 00:15:00,
2013-04-11 19:20:00,59.7,52.8,29.80,NW,310,0.0,-999.0,78,0.00,,,0.00,WeatherSnoop3.0,2013-04-12 00:20:00,
2013-04-11 19:25:00,59.3,52.8,29.80,NW,316,0.0,-999.0,79,0.00,,,0.00,WeatherSnoop3.0,2013-04-12 00:25:00,
2013-04-11 19:30:00,58.9,53.1,29.80,NW,316,0.0,-999.0,81,0.00,,,0.00,WeatherSnoop3.0,2013-04-12 00:30:00,
2013-04-11 19:35:00,58.6,53.1,29.80,NW,316,0.0,-999.0,82,0.00,,,0.00,WeatherSnoop3.0,2013-04-12 00:35:00,
2013-04-11 19:40:00,58.4,53.6,29.81,NW,317,0.0,-999.0,84,0.00,,,0.00,WeatherSnoop3.0,2013-04-12 00:40:00,
2013-04-11 19:45:00,58.0,53.5,29.81,NW,316,0.0,-999.0,85,0.00,,,0.00,WeatherSnoop3.0,2013-04-12 00:45:00,
2013-04-11 19:50:00,57.6,53.1,29.81,NW,316,0.0,-999.0,85,0.00,,,0.00,WeatherSnoop3.0,2013-04-12 00:50:00,
2013-04-11 19:55:00,57.2,53.0,29.81,NW,316,0.0,-999.0,86,0.00,,,0.00,WeatherSnoop3.0,2013-04-12 00:55:00,
2013-04-11 20:00:00,56.9,53.1,29.81,NW,316,0.0,-999.0,87,0.00,,,0.00,WeatherSnoop3.0,2013-04-12 01:00:00,
2013-04-11 20:05:00,56.6,52.8,29.81,NW,316,0.0,-999.0,87,0.00,,,0.00,WeatherSnoop3.0,2013-04-12 01:05:00,
2013-04-11 20:10:00,56.3,52.5,29.82,NW,316,0.0,-999.0,87,0.00,,,0.00,WeatherSnoop3.0,2013-04-12 01:10:00,
2013-04-11 20:15:00,56.0,52.5,29.82,NW,315,0.0,-999.0,88,0.00,,,0.00,WeatherSnoop3.0,2013-04-12 01:15:00,
2013-04-11 20:20:00,55.7,52.5,29.83,NW,316,0.0,-999.0,89,0.00,,,0.00,WeatherSnoop3.0,2013-04-12 01:20:00,
2013-04-11 20:25:00,55.4,52.2,29.83,NW,316,0.0,-999.0,89,0.00,,,0.00,WeatherSnoop3.0,2013-04-12 01:25:00,
2013-04-11 20:30:00,55.1,52.2,29.83,NW,316,0.0,-999.0,90,0.00,,,0.00,WeatherSnoop3.0,2013-04-12 01:30:00,
2013-04-11 20:35:00,54.9,52.0,29.83,NW,316,0.0,-999.0,90,0.00,,,0.00,WeatherSnoop3.0,2013-04-12 01:35:00,
2013-04-11 20:40:00,54.6,51.7,29.83,NW,316,0.0,-999.0,90,0.00,,,0.00,WeatherSnoop3.0,2013-04-12 01:40:00,
2013-04-11 20:45:00,54.4,51.5,29.83,NW,317,0.0,-999.0,90,0.00,,,0.00,WeatherSnoop3.0,2013-04-12 01:45:00,
2013-04-11 20:50:00,54.1,51.5,29.83,NW,316,0.0,-999.0,91,0.00,,,0.00,WeatherSnoop3.0,2013-04-12 01:50:00,
2013-04-11 20:55:00,53.9,51.3,29.83,NW,317,0.0,-999.0,91,0.00,,,0.00,WeatherSnoop3.0,2013-04-12 01:55:00,
2013-04-11 21:00:00,53.6,51.0,29.83,NW,316,0.0,-999.0,91,0.00,,,0.00,WeatherSnoop3.0,2013-04-12 02:00:00,
2013-04-11 21:05:00,53.3,50.7,29.83,NW,316,0.0,-999.0,91,0.00,,,0.00,WeatherSnoop3.0,2013-04-12 02:05:00,
2013-04-11 21:10:00,53.1,50.5,29.84,NW,316,0.0,-999.0,91,0.00,,,0.00,WeatherSnoop3.0,2013-04-12 02:10:00,
2013-04-11 21:15:00,52.9,50.6,29.85,NW,316,0.0,-999.0,92,0.00,,,0.00,WeatherSnoop3.0,2013-04-12 02:15:00,
2013-04-11 21:20:00,53.0,51.0,29.85,NW,316,0.0,-999.0,93,0.00,,,0.00,WeatherSnoop3.0,2013-04-12 02:20:00,
2013-04-11 21:25:00,52.9,50.9,29.85,NW,316,0.0,-999.0,93,0.00,,,0.00,WeatherSnoop3.0,2013-04-12 02:25:00,
2013-04-11 21:30:00,52.8,50.8,29.86,NW,315,0.0,-999.0,93,0.00,,,0.00,WeatherSnoop3.0,2013-04-12 02:30:00,
2013-04-11 21:35:00,52.8,50.8,29.86,NW,316,0.0,-999.0,93,0.00,,,0.00,WeatherSnoop3.0,2013-04-12 02:35:00,
2013-04-11 21:40:00,52.7,50.7,29.85,NW,315,0.0,-999.0,93,0.00,,,0.00,WeatherSnoop3.0,2013-04-12 02:40:00,
2013-04-11 21:45:00,52.6,50.6,29.86,NW,316,0.0,-999.0,93,0.00,,,0.00,WeatherSnoop3.0,2013-04-12 02:45:00,
2013-04-11 21:50:00,52.4,50.4,29.86,NW,316,0.0,-999.0,93,0.00,,,0.00,WeatherSnoop3.0,2013-04-12 02:50:00,
2013-04-11 21:55:00,52.3,50.3,29.86,NW,316,0.0,-999.0,93,0.00,,,0.00,WeatherSnoop3.0,2013-04-12 02:55:00,
2013-04-11 22:00:00,52.2,50.5,29.86,NW,316,0.0,-999.0,94,0.00,,,0.00,WeatherSnoop3.0,2013-04-12 03:00:00,
2013-04-11 22:05:00,52.3,50.6,29.86,NW,316,0.0,-999.0,94,0.00,,,0.00,WeatherSnoop3.0,2013-04-12 03:05:00,
2013-04-11 22:10:00,52.3,50.6,29.87,NW,316,0.0,-999.0,94,0.00,,,0.00,WeatherSnoop3.0,2013-04-12 03:10:00,
2013-04-11 22:15:00,52.3,50.6,29.87,NW,316,0.0,-999.0,94,0.00,,,0.00,WeatherSnoop3.0,2013-04-12 03:15:00,
2013-04-11 22:20:00,52.3,50.6,29.87,NW,316,0.0,-999.0,94,0.00,,,0.00,WeatherSnoop3.0,2013-04-12 03:20:00,
2013-04-11 22:25:00,52.4,50.4,29.87,NW,316,0.0,-999.0,93,0.00,,,0.00,WeatherSnoop3.0,2013-04-12 03:25:00,
2013-04-11 22:30:00,52.3,50.3,29.87,NW,316,0.0,-999.0,93,0.00,,,0.00,WeatherSnoop3.0,2013-04-12 03:30:00,
2013-04-11 22:35:00,52.3,50.3,29.87,NW,316,0.0,-999.0,93,0.00,,,0.00,WeatherSnoop3.0,2013-04-12 03:35:00,
2013-04-11 22:40:00,52.2,50.2,29.87,NW,317,0.0,-999.0,93,0.00,,,0.00,WeatherSnoop3.0,2013-04-12 03:40:00,
2013-04-11 22:45:00,52.1,50.1,29.87,NW,316,0.0,-999.0,93,0.00,,,0.00,WeatherSnoop3.0,2013-04-12 03:45:00,
2013-04-11 22:50:00,52.1,49.8,29.88,NW,316,0.0,-999.0,92,0.00,,,0.00,WeatherSnoop3.0,2013-04-12 03:50:00,
2013-04-11 22:55:00,52.0,49.7,29.87,NW,316,0.0,-999.0,92,0.00,,,0.00,WeatherSnoop3.0,2013-04-12 03:55:00,
2013-04-11 23:00:00,52.0,49.5,29.88,NW,316,0.0,-999.0,91,0.00,,,0.00,WeatherSnoop3.0,2013-04-12 04:00:00,
2013-04-11 23:05:00,51.9,49.4,29.88,NW,316,0.0,-999.0,91,0.00,,,0.00,WeatherSnoop3.0,2013-04-12 04:05:00,
2013-04-11 23:10:00,51.8,49.3,29.88,North,360,0.0,-999.0,91,0.00,,,0.00,WeatherSnoop3.0,2013-04-12 04:10:00,
2013-04-11 23:15:00,51.7,49.2,29.88,NW,316,0.0,-999.0,91,0.00,,,0.00,WeatherSnoop3.0,2013-04-12 04:15:00,
2013-04-11 23:20:00,51.8,49.3,29.87,NNW,335,0.0,-999.0,91,0.00,,,0.00,WeatherSnoop3.0,2013-04-12 04:20:00,
2013-04-11 23:25:00,52.0,49.5,29.87,NNW,337,0.0,-999.0,91,0.00,,,0.00,WeatherSnoop3.0,2013-04-12 04:25:00,
2013-04-11 23:30:00,52.0,49.2,29.87,NNW,331,0.0,-999.0,90,0.00,,,0.00,WeatherSnoop3.0,2013-04-12 04:30:00,
2013-04-11 23:35:00,52.1,49.3,29.88,NW,324,0.0,-999.0,90,0.00,,,0.00,WeatherSnoop3.0,2013-04-12 04:35:00,
2013-04-11 23:40:00,52.0,48.9,29.88,NW,323,0.0,-999.0,89,0.00,,,0.00,WeatherSnoop3.0,2013-04-12 04:40:00,
2013-04-11 23:45:00,51.9,48.8,29.88,NW,324,0.0,-999.0,89,0.00,,,0.00,WeatherSnoop3.0,2013-04-12 04:45:00,
2013-04-11 23:50:00,52.0,48.9,29.88,NW,324,0.0,-999.0,89,0.00,,,0.00,WeatherSnoop3.0,2013-04-12 04:50:00,
2013-04-11 23:55:00,52.1,49.0,29.88,NW,324,0.0,-999.0,89,0.00,,,0.00,WeatherSnoop3.0,2013-04-12 04:55:00,